Cloud_Cover
23 4 0 0 0 0 0 0 0 5 5 20 67 50 5 5 5 5 1 18 94 20 9 6 5 95 100 100 40 52 5 5 3 2 3 5 7 95 5 100 100 74 3
79 24 0 5 0 0 0 0 0 0 0 5 3 0 2 2 0 0 0 0 3 34 100 95 96 100 100 100 61 6 22 5 2 4 0 0 99 100 28 55 98 100 100
96 2 0 11 0 80 0 0 0 0 0 0 0 0 0 0 0 0 0 0 4 5 44 58 39 88 92 27 86 100 99 99 65 5 4 3 91 96 97 100 100 59 5
0 0 0 0 26 37 24 2 0 0 0 0 0 0 0 0 0 1 0 0 3 5 1 0 0 0 2 5 4 6 5 5 5 2 1 2 4 5 5 12 100 100 100
0 0 0 0 0 0 2 39 44 24 18 4 0 0 0 0 0 2 0 0 4 5 16 5 5 3 0 3 5 5 5 4 4 5 2 2 1 2 5 30 28 100 60
0 0 0 0 0 0 0 0 0 1 28 35 4 1 0 0 0 0 0 0 0 4 5 5 5 5 5 5 5 5 5 5 5 5 5 5 5 5 5 5 59 94 100
0 0 0 0 0 0 0 0 0 0 0 1 86 86 27 4 0 0 0 0 0 0 0 0 0 0 0 3 5 4 33 89 48 33 29 5 4 2 3 5 3 5 2
0 0 0 0 0 0 0 0 0 0 0 0 0 0 0 0 0 0 0 0 0 0 0 0 0 0 0 0 0 0 0 0 2 6 6 6 3 4 5 5 4 2 0
0 0 0 0 0 0 0 0 0 0 0 0 0 0 0 0 0 0 0 0 0 0 0 0 0 0 0 0 0 0 0 0 0 0 0 0 0 0 0 0 5 6 0
0 0 0 0 0 0 0 0 0 0 0 0 0 0 0 0 0 0 0 0 13 21 0 0 0 0 0 0 0 0 0 0 1 4 5 4 2 0 0 0 0 5 12
0 0 0 0 0 0 0 0 0 0 0 0 0 0 0 0 0 0 0 0 0 0 0 0 0 0 0 0 0 0 0 0 0 0 0 0 34 67 5 1 2 4 25
2 0 3 5 3 5 5 5 5 5 0 0 2 0 0 0 0 0 0 0 0 0 0 0 0 4 0 0 0 12 12 54 73 3 43 94 64 100 35 2 2 0 0
5 5 5 8 5 5 8 20 5 5 0 0 0 0 0 0 0 0 0 0 0 0 0 0 35 8 5 43 70 18 42 24 52 61 100 100 100 100 100 6 0 0 0
5 5 5 17 49 33 11 5 5 4 3 0 1 5 5 4 0 0 0 0 0 0 0 0 0 0 10 6 11 1 0 26 36 23 25 35 94 100 100 29 5 5 4
83 57 85 25 35 9 5 44 100 100 92 5 5 5 0 0 0 0 0 0 0 0 0 0 0 0 0 0 0 24 55 0 0 0 0 16 5 37 71 100 33 5 11
63 11 5 4 16 99 100 100 100 100 8 5 1 0 0 0 0 0 0 0 0 0 0 0 0 0 0 0 0 0 0 0 7 8 0 2 1 4 15 97 100 90 44
99 11 5 93 100 100 100 100 15 5 4 5 5 5 0 0 0 0 0 19 0 0 0 0 0 0 0 0 0 0 0 0 0 0 0 3 0 7 37 85 64 95 98
19 63 100 100 97 47 7 5 5 6 5 6 13 21 2 20 0 38 0 0 0 0 0 6 62 1 57 34 0 0 0 0 0 0 18 100 100 100 100 86 73 54 43
77 100 93 47 5 6 9 5 6 30 5 18 71 0 4 9 11 18 44 52 3 0 0 5 0 38 2 6 0 0 0 0 11 82 73 99 100 100 100 98 19 71 100
100 100 22 5 10 5 5 5 33 6 0 100 97 0 0 0 0 0 2 14 0 5 0 0 0 0 36 0 0 0 0 54 34 57 67 99 100 100 100 91 98 58 89
88 6 5 5 11 5 2 0 2 0 92 98 100 0 0 0 0 0 0 0 0 0 0 0 0 0 0 0 0 0 0 46 39 24 0 0 0 0 0 49 72 100 74
5 5 3 1 0 0 0 0 2 33 96 74 0 0 0 0 0 0 0 0 0 0 0 0 0 0 0 0 7 1 0 0 82 77 21 0 0 0 0 3 2 34 66
1 0 0 0 0 0 0 0 59 54 0 0 0 0 0 0 0 0 0 0 0 0 0 0 0 0 0 0 0 16 21 66 0 26 34 52 0 0 0 0 0 0 0
0 0 0 0 0 0 0 0 0 24 40 0 0 0 0 0 0 0 0 0 0 0 0 0 0 2 4 4 12 25 22 32 5 5 19 1 4 0 0 0 0 0 0
0 0 0 0 0 0 0 0 0 0 0 0 0 0 0 0 0 0 0 0 0 4 7 83 46 5 5 8 21 5 4 4 2 4 33 5 0 0 0 0 0 0 0
0 0 0 0 0 0 0 0 0 0 0 0 0 0 0 0 0 0 0 1 4 9 30 11 15 5 5 4 0 2 0 0 0 0 0 0 3 0 0 0 0 1 0